When you browse on this site, cookies collect data to enhance your experience and personalize the content and advertising you see.
Visit our Privacy Policy to learn more. By continuing to use the site, you agree to this use of cookies and data.
  • In Latvia
  • List of Countries
  • For 7 days
  • Water Temperature
  • Satellite Maps
  • Weather Map
  • Weather Widgets
  • user-avatar
    Login

    Hourly Weather Wiktoria

    Today, 19 January, Saturday

    Time Temperature Precipitation Wind Pressure Humidity
    00:00 +21°C° 0 mm 6 mps 749 mmHg 66%
    01:00 +20°C° 0 mm 6 mps 749 mmHg 67%
    02:00 +19°C° 0 mm 5 mps 750 mmHg 69%
    03:00 +17°C° 0 mm 5 mps 750 mmHg 71%
    04:00 +16°C° 0 mm 5 mps 750 mmHg 74%
    05:00 +17°C° 0 mm 5 mps 750 mmHg 71%
    06:00 +17°C° 0 mm 6 mps 751 mmHg 69%
    07:00 +17°C° 0 mm 6 mps 751 mmHg 66%
    08:00 +21°C° 0 mm 6 mps 751 mmHg 56%
    09:00 +23°C° 0 mm 6 mps 752 mmHg 47%
    10:00 +26°C° 0 mm 5 mps 752 mmHg 35%
    11:00 +28°C° 0 mm 5 mps 752 mmHg 31%
    12:00 +30°C° 0 mm 5 mps 752 mmHg 27%
    13:00 +32°C° 0 mm 6 mps 751 mmHg 22%
    14:00 +33°C° 0 mm 6 mps 751 mmHg 23%
    15:00 +33°C° 0 mm 7 mps 751 mmHg 23%
    16:00 +33°C° 0 mm 7 mps 750 mmHg 23%
    17:00 +30°C° 0 mm 7 mps 751 mmHg 26%
    18:00 +29°C° 0 mm 7 mps 751 mmHg 28%
    19:00 +27°C° 0 mm 7 mps 751 mmHg 31%
    20:00 +24°C° 0 mm 7 mps 751 mmHg 34%
    21:00 +23°C° 0 mm 7 mps 752 mmHg 38%
    22:00 +21°C° 0 mm 7 mps 752 mmHg 41%
    23:00 +20°C° 0 mm 7 mps 752 mmHg 43%

    Tomorrow, 20 January, Sunday

    Time Temperature Precipitation Wind Pressure Humidity
    00:00 +20°C° 0 mm 6 mps 752 mmHg 45%
    01:00 +19°C° 0 mm 6 mps 752 mmHg 47%
    02:00 +17°C° 0 mm 5 mps 752 mmHg 50%
    03:00 +17°C° 0 mm 5 mps 752 mmHg 53%
    04:00 +16°C° 0 mm 5 mps 752 mmHg 56%
    05:00 +17°C° 0 mm 5 mps 752 mmHg 56%
    06:00 +18°C° 0 mm 4 mps 752 mmHg 56%
    07:00 +19°C° 0 mm 4 mps 753 mmHg 55%
    08:00 +22°C° 0 mm 4 mps 753 mmHg 50%
    09:00 +26°C° 0 mm 3 mps 752 mmHg 44%
    10:00 +29°C° 0 mm 2 mps 752 mmHg 38%
    11:00 +31°C° 0 mm 2 mps 752 mmHg 34%
    12:00 +34°C° 0 mm 2 mps 751 mmHg 29%
    13:00 +36°C° 0 mm 2 mps 751 mmHg 25%
    14:00 +37°C° 0 mm 3 mps 751 mmHg 24%
    15:00 +37°C° 0 mm 4 mps 750 mmHg 24%
    16:00 +37°C° 0 mm 5 mps 750 mmHg 23%
    17:00 +35°C° 0 mm 6 mps 750 mmHg 30%
    18:00 +33°C° 0 mm 6 mps 750 mmHg 36%
    19:00 +30°C° 0 mm 7 mps 750 mmHg 42%
    20:00 +29°C° 0 mm 7 mps 750 mmHg 46%
    21:00 +27°C° 0 mm 7 mps 751 mmHg 51%
    22:00 +26°C° 0 mm 7 mps 751 mmHg 55%
    23:00 +24°C° 0 mm 6 mps 751 mmHg 59%

    Day after tomorrow, 21 January, Monday

    Time Temperature Precipitation Wind Pressure Humidity
    00:00 +23°C° 0 mm 5 mps 751 mmHg 63%
    01:00 +22°C° 0 mm 4 mps 751 mmHg 66%
    02:00 +21°C° 0 mm 4 mps 751 mmHg 69%
    03:00 +21°C° 0 mm 4 mps 750 mmHg 71%
    04:00 +20°C° 0 mm 4 mps 750 mmHg 73%
    05:00 +21°C° 0 mm 3 mps 750 mmHg 69%
    06:00 +22°C° 0 mm 3 mps 751 mmHg 66%
    07:00 +24°C° 0 mm 3 mps 751 mmHg 62%
    08:00 +26°C° 0 mm 3 mps 751 mmHg 55%
    09:00 +29°C° 0 mm 3 mps 750 mmHg 49%
    10:00 +33°C° 0 mm 3 mps 750 mmHg 42%
    11:00 +35°C° 0 mm 3 mps 749 mmHg 39%
    12:00 +36°C° 0 mm 3 mps 749 mmHg 35%
    13:00 +38°C° 0 mm 2 mps 748 mmHg 31%
    14:00 +39°C° 0 mm 2 mps 748 mmHg 29%
    15:00 +40°C° 0 mm 1 mps 747 mmHg 26%
    16:00 +41°C° 0 mm 1 mps 746 mmHg 24%
    17:00 +40°C° 0 mm 1 mps 747 mmHg 25%
    18:00 +39°C° 0 mm 1 mps 747 mmHg 27%
    19:00 +38°C° 0 mm 2 mps 747 mmHg 28%
    20:00 +36°C° 0 mm 3 mps 747 mmHg 34%
    21:00 +33°C° 0 mm 4 mps 747 mmHg 39%
    22:00 +30°C° 0 mm 5 mps 748 mmHg 45%
    23:00 +29°C° 0 mm 5 mps 748 mmHg 46%

    22 January, Tuesday

    Time Temperature Precipitation Wind Pressure Humidity
    00:00 +29°C° 0 mm 4 mps 747 mmHg 48%
    01:00 +28°C° 0 mm 4 mps 747 mmHg 50%
    02:00 +28°C° 0 mm 4 mps 747 mmHg 51%
    03:00 +27°C° 0 mm 4 mps 747 mmHg 52%
    04:00 +27°C° 0 mm 4 mps 747 mmHg 53%
    05:00 +28°C° 0 mm 4 mps 747 mmHg 53%
    06:00 +29°C° 0 mm 4 mps 747 mmHg 53%
    07:00 +30°C° 0 mm 5 mps 747 mmHg 52%
    08:00 +34°C° 0 mm 5 mps 747 mmHg 45%
    09:00 +37°C° 0 mm 5 mps 747 mmHg 38%
    10:00 +40°C° 0 mm 5 mps 746 mmHg 31%
    11:00 +42°C° 0 mm 4 mps 746 mmHg 26%
    12:00 +44°C° 0 mm 4 mps 745 mmHg 22%
    13:00 +45°C° 0 mm 3 mps 745 mmHg 17%
    14:00 +45°C° 0 mm 3 mps 744 mmHg 17%
    15:00 +44°C° 0 mm 3 mps 744 mmHg 18%
    16:00 +43°C° 0 mm 2 mps 743 mmHg 18%
    17:00 +42°C° 0 mm 3 mps 743 mmHg 22%
    18:00 +41°C° 0 mm 5 mps 743 mmHg 25%
    19:00 +39°C° 0 mm 6 mps 743 mmHg 29%
    20:00 +36°C° 0 mm 6 mps 744 mmHg 32%
    21:00 +35°C° 0 mm 7 mps 744 mmHg 35%
    22:00 +33°C° 0 mm 7 mps 745 mmHg 38%
    23:00 +30°C° 0 mm 7 mps 745 mmHg 41%

    23 January, Wednesday

    Time Temperature Precipitation Wind Pressure Humidity
    00:00 +29°C° 0 mm 7 mps 745 mmHg 43%
    01:00 +27°C° 0 mm 7 mps 745 mmHg 45%
    02:00 +27°C° 0 mm 6 mps 745 mmHg 48%
    03:00 +26°C° 0 mm 5 mps 745 mmHg 51%
    04:00 +25°C° 0 mm 5 mps 745 mmHg 54%
    05:00 +25°C° 0 mm 5 mps 745 mmHg 54%
    06:00 +24°C° 0 mm 6 mps 746 mmHg 54%
    07:00 +23°C° 0 mm 6 mps 746 mmHg 53%
    08:00 +27°C° 0 mm 6 mps 746 mmHg 46%
    09:00 +29°C° 0 mm 6 mps 746 mmHg 38%
    10:00 +33°C° 0 mm 6 mps 747 mmHg 30%
    11:00 +34°C° 0 mm 7 mps 746 mmHg 29%
    12:00 +36°C° 0 mm 7 mps 746 mmHg 27%
    13:00 +38°C° 0 mm 7 mps 746 mmHg 25%
    14:00 +37°C° 0 mm 8 mps 745 mmHg 27%
    15:00 +35°C° 0 mm 8 mps 745 mmHg 29%
    16:00 +34°C° 0 mm 9 mps 745 mmHg 31%
    17:00 +33°C° 0 mm 9 mps 745 mmHg 31%
    18:00 +31°C° 0 mm 8 mps 746 mmHg 32%
    19:00 +29°C° 0 mm 8 mps 746 mmHg 33%
    20:00 +27°C° 0 mm 7 mps 747 mmHg 37%
    21:00 +24°C° 0 mm 6 mps 747 mmHg 41%
    22:00 +23°C° 0 mm 5 mps 748 mmHg 45%
    23:00 +22°C° 0 mm 5 mps 748 mmHg 50%

    24 January, Thursday

    Time Temperature Precipitation Wind Pressure Humidity
    00:00 +21°C° 0 mm 4 mps 748 mmHg 55%
    01:00 +21°C° 0 mm 3 mps 747 mmHg 60%
    02:00 +21°C° 0 mm 3 mps 747 mmHg 61%
    03:00 +21°C° 0 mm 3 mps 747 mmHg 63%
    04:00 +21°C° 0 mm 3 mps 747 mmHg 64%
    05:00 +22°C° 0 mm 4 mps 748 mmHg 61%
    06:00 +23°C° 0 mm 4 mps 748 mmHg 58%
    07:00 +25°C° 0 mm 5 mps 748 mmHg 55%
    08:00 +27°C° 0 mm 6 mps 748 mmHg 50%
    09:00 +29°C° 0 mm 6 mps 748 mmHg 45%
    10:00 +30°C° 0 mm 6 mps 748 mmHg 40%
    11:00 +34°C° 0 mm 6 mps 747 mmHg 35%
    12:00 +36°C° 0 mm 6 mps 746 mmHg 31%
    13:00 +39°C° 0 mm 6 mps 746 mmHg 27%
    14:00 +39°C° 0 mm 5 mps 745 mmHg 25%
    15:00 +40°C° 0 mm 5 mps 745 mmHg 23%
    16:00 +41°C° 0 mm 5 mps 744 mmHg 22%
    17:00 +40°C° 0 mm 5 mps 744 mmHg 23%
    18:00 +38°C° 0 mm 4 mps 744 mmHg 25%
    19:00 +37°C° 0 mm 4 mps 744 mmHg 26%
    20:00 +36°C° 0 mm 5 mps 745 mmHg 29%
    21:00 +35°C° 0 mm 6 mps 745 mmHg 32%
    22:00 +33°C° 0 mm 6 mps 745 mmHg 35%
    23:00 +32°C° 0 mm 7 mps 745 mmHg 38%
    Show more